Arthur Brusco — WDC3449 — position and weather

sailwx.info

Track history (hours):
 
Tides and Currents Weather Stations Pressure Air Temp Water Temp Dewpoint Dewpoint Depression Visibility Wind Speed Wind Dir Waves Ship Positions

Arthur Brusco

Owner: Brusco Tug & Barge, Inc., Longview, WA. More information available from US FCC via Universal Licensing System and Coast Guard Vessel Documentation Center.

Last reported at 2014-Oct-25 16:34 UTC. Time now 2014-Oct-25 17:32 UTC.
Position N 37°33' W 122°12'.

Length 35 m; draft 4.2 m.

Type: Towing. MMSI: 367008020.

Date/timePositionNaut miles runAvg speedWind from/ knotsBaromVisibWave heightAir tempDewpointWater temp
2014-Oct-25 16:34N 37°33' W 122°12'0 0.0
2014-Oct-25 15:34N 37°33' W 122°12'0 0.0
2014-Oct-25 14:34N 37°33' W 122°12'1 0.5
2014-Oct-25 13:34N 37°34' W 122°12'0 0.2
2014-Oct-25 12:31N 37°34' W 122°12'1 0.5
2014-Oct-25 11:33N 37°34' W 122°13'1 0.8
2014-Oct-25 10:34N 37°34' W 122°14'3 2.7
2014-Oct-25 09:34N 37°36' W 122°16'4 3.7
2014-Oct-25 08:34N 37°39' W 122°19'4 3.9
2014-Oct-25 07:33N 37°43' W 122°21'5 5.0
2014-Oct-25 06:34N 37°48' W 122°23'5 5.5
2014-Oct-25 05:34N 37°53' W 122°25'2 2.4
2014-Oct-25 04:34N 37°55' W 122°25'0 0.1
2014-Oct-25 03:34N 37°55' W 122°24'2 2.0
2014-Oct-25 02:33N 37°57' W 122°26'2 2.1
2014-Oct-25 01:34N 37°59' W 122°26'4 3.6
2014-Oct-25 00:34N 37°56' W 122°25'6 6.4
2014-Oct-24 23:33N 37°49' W 122°24'1313.3
2014-Oct-24 22:34N 37°37' W 122°17'7 7.5
2014-Oct-24 21:34N 37°30' W 122°13'5 4.8
2014-Oct-24 20:34N 37°35' W 122°15'9 9.0
2014-Oct-24 19:34N 37°43' W 122°20'8 7.7
2014-Oct-24 18:34N 37°49' W 122°25'5 5.1
2014-Oct-24 17:34N 37°54' W 122°25'1 0.9
2014-Oct-24 16:33N 37°55' W 122°24'0 0.0
2014-Oct-24 15:34N 37°55' W 122°24'0 0.0
2014-Oct-24 14:33N 37°55' W 122°24'4 4.1
2014-Oct-24 13:34N 37°59' W 122°27'0 0.0
2014-Oct-24 12:33N 37°59' W 122°27'0 0.0
2014-Oct-24 11:34N 37°59' W 122°27'0 0.0
2014-Oct-24 10:33N 37°59' W 122°27'0 0.0
2014-Oct-24 09:34N 37°59' W 122°27'0 0.1
2014-Oct-24 08:34N 37°59' W 122°27'0 0.0
2014-Oct-24 07:34N 37°59' W 122°27'0 0.0
2014-Oct-24 06:34N 37°59' W 122°27'0 0.0
2014-Oct-24 05:34N 37°59' W 122°27'0 0.0
2014-Oct-24 04:34N 37°59' W 122°27'0 0.1
2014-Oct-24 03:33N 37°59' W 122°27'4 4.2
2014-Oct-24 02:33N 37°55' W 122°25'5 5.2
2014-Oct-24 01:34N 37°50' W 122°25'6 5.6
2014-Oct-24 00:34N 37°56' W 122°25'0 0.4
2014-Oct-23 23:34N 37°55' W 122°25'4 4.3
2014-Oct-23 22:33N 37°59' W 122°27'0 0.0
2014-Oct-23 21:33N 37°59' W 122°27'0 0.0
2014-Oct-23 20:33N 37°59' W 122°27'0 0.0
2014-Oct-23 19:33N 37°59' W 122°27'0 0.0
2014-Oct-23 18:33N 37°59' W 122°27'1 0.5
2014-Oct-23 17:33N 37°59' W 122°27'0 0.0
2014-Oct-23 16:34N 37°59' W 122°27'0 0.0
2014-Oct-23 15:28N 37°59' W 122°27'0 0.0
2014-Oct-23 14:33N 37°59' W 122°27'0 0.0
2014-Oct-23 13:33N 37°59' W 122°27'0 0.0
2014-Oct-23 12:31N 37°59' W 122°27'4 4.1
2014-Oct-23 11:33N 37°55' W 122°24'1 0.6
2014-Oct-23 10:33N 37°56' W 122°25'1 1.5
2014-Oct-23 09:33N 37°57' W 122°26'2 2.0
2014-Oct-23 08:33N 37°59' W 122°27'0 0.1
2014-Oct-23 07:33N 37°59' W 122°27'4 4.0
2014-Oct-23 06:33N 37°55' W 122°25'7 6.7
2014-Oct-23 05:33N 37°49' W 122°29'5 5.2
2014-Oct-23 04:33N 37°46' W 122°34'4 3.8
2014-Oct-23 03:33N 37°48' W 122°31'5 4.7
2014-Oct-23 02:33N 37°50' W 122°26'6 6.1
2014-Oct-23 01:33N 37°56' W 122°27'8 7.4
2014-Oct-23 00:32N 38°02' W 122°21'4 4.1
2014-Oct-22 23:30N 38°03' W 122°16'0 0.0
2014-Oct-22 18:12N 38°03' W 122°16'0 0.0
2014-Oct-22 16:30N 38°03' W 122°16'0 0.0
2014-Oct-22 15:30N 38°03' W 122°16'0 0.0
2014-Oct-22 14:30N 38°03' W 122°16'0 0.0
2014-Oct-22 13:30N 38°03' W 122°16'0 0.0
2014-Oct-22 12:30N 38°03' W 122°16'0 0.0
2014-Oct-22 11:30N 38°03' W 122°16'0 0.0
2014-Oct-22 10:24N 38°03' W 122°16'0 0.0
2014-Oct-22 09:30N 38°03' W 122°16'0 0.0
2014-Oct-22 08:17N 38°03' W 122°16'0 0.0
2014-Oct-22 07:33N 38°03' W 122°16'0 0.0
2014-Oct-22 06:26N 38°03' W 122°16'0 0.0
2014-Oct-22 05:17N 38°03' W 122°16'0 0.0
2014-Oct-22 04:33N 38°03' W 122°16'0 0.0
2014-Oct-22 03:33N 38°03' W 122°16'0 0.4
2014-Oct-22 02:33N 38°03' W 122°16'5 4.8
2014-Oct-22 01:33N 38°02' W 122°22'7 6.7
2014-Oct-22 00:33N 37°56' W 122°27'5 5.4
2014-Oct-21 23:33N 37°51' W 122°26'5 5.2
2014-Oct-21 22:33N 37°48' W 122°32'2 2.5
2014-Oct-21 21:33N 37°46' W 122°34'7 7.3
2014-Oct-21 20:33N 37°50' W 122°26'7 6.5
2014-Oct-21 19:33N 37°56' W 122°27'6 6.0
2014-Oct-21 18:33N 38°01' W 122°23'6 5.1
2014-Oct-21 17:28N 38°03' W 122°16'1 0.6
2014-Oct-21 16:27N 38°03' W 122°17'7 7.7
2014-Oct-21 15:31N 38°00' W 122°25'2 2.1
2014-Oct-21 14:30N 37°59' W 122°27'0 0.0
2014-Oct-21 12:03N 37°59' W 122°27'0 0.0
2014-Oct-21 10:30N 37°59' W 122°27'0 0.0
2014-Oct-21 09:31N 37°59' W 122°27'0 0.0
2014-Oct-21 08:05N 37°59' W 122°27'0 0.2
2014-Oct-21 07:33N 37°59' W 122°27'6 5.9
2014-Oct-21 06:33N 37°53' W 122°25'4 4.4
2014-Oct-21 05:33N 37°49' W 122°27'7 6.8
2014-Oct-21 04:33N 37°45' W 122°34'6 5.7
2014-Oct-21 03:33N 37°49' W 122°29'5 5.3
2014-Oct-21 02:33N 37°54' W 122°26'8 7.7
2014-Oct-21 01:33N 38°01' W 122°23'6 6.1
2014-Oct-21 00:33N 38°03' W 122°15'0 0.1
2014-Oct-20 23:32N 38°03' W 122°16'0 0.0
2014-Oct-20 19:33N 38°03' W 122°16'0 0.0
2014-Oct-20 11:33N 38°03' W 122°16'1 1.0
2014-Oct-20 10:29N 38°03' W 122°17'4 3.6
2014-Oct-20 09:26N 38°02' W 122°22'5 5.3
2014-Oct-20 08:33N 37°59' W 122°26'0 0.0
2014-Oct-20 07:33N 37°59' W 122°26'0 0.1
2014-Oct-20 06:33N 37°59' W 122°26'0 0.0
2014-Oct-20 05:33N 37°59' W 122°26'0 0.0
2014-Oct-20 04:33N 37°59' W 122°26'0 0.0
2014-Oct-20 03:33N 37°59' W 122°26'0 0.0
2014-Oct-20 02:33N 37°59' W 122°26'0 0.0
2014-Oct-20 01:33N 37°59' W 122°26'0 0.1
2014-Oct-20 00:33N 37°59' W 122°26'5 4.5
2014-Oct-19 23:33N 37°54' W 122°27'5 5.5
2014-Oct-19 22:33N 37°49' W 122°28'6 6.1
2014-Oct-19 21:33N 37°47' W 122°35'7 6.7
2014-Oct-19 20:31N 37°43' W 122°42'9 9.1
2014-Oct-19 19:33N 37°38' W 122°51'13 2.2
2014-Oct-19 13:33N 37°37' W 123°08'7 7.5
2014-Oct-19 12:33N 37°37' W 122°59'10 7.2
2014-Oct-19 11:10N 37°42' W 122°48'7 6.7
2014-Oct-19 10:12N 37°45' W 122°41'4 6.9
2014-Oct-19 09:33N 37°47' W 122°35'8 7.6
2014-Oct-19 08:33N 37°49' W 122°26'2 1.6
2014-Oct-19 07:33N 37°49' W 122°24'0 0.0
2014-Oct-19 06:33N 37°49' W 122°24'0 0.0
2014-Oct-19 05:33N 37°49' W 122°24'0 0.0
2014-Oct-19 04:30N 37°49' W 122°24'0 0.1
2014-Oct-19 03:32N 37°49' W 122°24'0 0.0
2014-Oct-19 02:32N 37°49' W 122°24'0 0.0
2014-Oct-19 01:32N 37°49' W 122°24'0 0.0
2014-Oct-19 00:32N 37°49' W 122°24'0 0.0
2014-Oct-18 23:31N 37°49' W 122°24'0 0.0
2014-Oct-18 22:28N 37°49' W 122°24'0 0.0
2014-Oct-18 21:31N 37°49' W 122°24'0 0.0
2014-Oct-18 20:31N 37°49' W 122°24'0 0.0
2014-Oct-18 19:31N 37°49' W 122°24'0 0.0
2014-Oct-18 18:28N 37°49' W 122°24'0 0.0
2014-Oct-18 17:31N 37°49' W 122°24'0 0.0
2014-Oct-18 16:31N 37°49' W 122°24'0 0.0
2014-Oct-18 15:31N 37°49' W 122°24'0 0.0
2014-Oct-18 14:31N 37°49' W 122°24'0 0.0
2014-Oct-18 13:31N 37°49' W 122°24'0 0.0
2014-Oct-18 12:31N 37°49' W 122°24'0 0.0
2014-Oct-18 11:31N 37°49' W 122°24'0 0.0
2014-Oct-18 10:28N 37°49' W 122°24'0 0.0
2014-Oct-18 09:31N 37°49' W 122°24'0 0.0
2014-Oct-18 08:28N 37°49' W 122°24'0 0.1
2014-Oct-18 07:33N 37°49' W 122°24'0 0.1
2014-Oct-18 06:28N 37°49' W 122°24'0 0.0
2014-Oct-18 05:31N 37°49' W 122°24'0 0.0
2014-Oct-18 04:31N 37°49' W 122°24'0 0.0
2014-Oct-18 03:28N 37°49' W 122°24'0 0.0
2014-Oct-18 02:25N 37°49' W 122°24'0 0.0
2014-Oct-18 01:28N 37°49' W 122°24'0 0.0
2014-Oct-18 00:25N 37°49' W 122°24'0 0.0
2014-Oct-17 23:28N 37°49' W 122°24'0 0.0
2014-Oct-17 22:19N 37°49' W 122°24'0 0.0
2014-Oct-17 21:31N 37°49' W 122°24'0 0.0
2014-Oct-17 20:31N 37°49' W 122°24'0 0.0
2014-Oct-17 19:31N 37°49' W 122°24'0 0.0
2014-Oct-17 18:31N 37°49' W 122°24'0 0.0
2014-Oct-17 17:31N 37°49' W 122°24'0 0.0
2014-Oct-17 16:31N 37°49' W 122°24'0 0.0
2014-Oct-17 15:31N 37°49' W 122°24'0 0.0
2014-Oct-17 14:31N 37°49' W 122°24'0 0.0
2014-Oct-17 13:31N 37°49' W 122°24'0 0.0
2014-Oct-17 12:31N 37°49' W 122°24'0 0.0
2014-Oct-17 11:31N 37°49' W 122°24'0 0.0
2014-Oct-17 10:31N 37°49' W 122°24'0 0.0
2014-Oct-17 09:31N 37°49' W 122°24'0 0.0
2014-Oct-17 08:31N 37°49' W 122°24'0 0.1
2014-Oct-17 07:33N 37°49' W 122°24'0 0.0
2014-Oct-17 06:30N 37°49' W 122°24'0 0.0
2014-Oct-17 05:33N 37°49' W 122°24'0 0.0
2014-Oct-17 04:33N 37°49' W 122°24'0 0.1
2014-Oct-17 03:32N 37°49' W 122°24'0 0.0
2014-Oct-17 02:32N 37°49' W 122°24'0 0.0
2014-Oct-17 01:32N 37°49' W 122°24'0 0.0
2014-Oct-17 00:32N 37°49' W 122°24'3 2.7
2014-Oct-16 23:34N 37°49' W 122°28'8 7.6
2014-Oct-16 22:33N 37°46' W 122°37'6 6.2
2014-Oct-16 21:33N 37°43' W 122°43'9 9.2
2014-Oct-16 20:33N 37°38' W 122°53'10 9.7
2014-Oct-16 19:33N 37°32' W 123°03'9 9.2
2014-Oct-16 18:32N 37°34' W 123°15'9 8.8
2014-Oct-16 17:28N 37°37' W 123°26'7 3.5
2014-Oct-16 15:32N 37°38' W 123°17'6 6.5
2014-Oct-16 14:33N 37°37' W 123°09'7 6.9
2014-Oct-16 13:33N 37°37' W 123°01'7 6.8
2014-Oct-16 12:34N 37°40' W 122°53'7 6.7
2014-Oct-16 11:33N 37°43' W 122°45'6 6.3
2014-Oct-16 10:34N 37°46' W 122°38'7 6.5
2014-Oct-16 09:34N 37°48' W 122°31'5 5.0
2014-Oct-16 08:33N 37°49' W 122°24'0 0.2
2014-Oct-16 07:33N 37°49' W 122°24'0 0.0
2014-Oct-16 06:29N 37°49' W 122°24'0 0.1
2014-Oct-16 05:33N 37°49' W 122°24'0 0.0
2014-Oct-16 04:33N 37°49' W 122°24'0 0.0
2014-Oct-16 03:32N 37°49' W 122°24'0 0.0
2014-Oct-16 02:32N 37°49' W 122°24'0 0.0
2014-Oct-16 01:32N 37°49' W 122°24'0 0.0
2014-Oct-16 00:32N 37°49' W 122°24'0 0.0
2014-Oct-15 23:32N 37°49' W 122°24'0 0.0
2014-Oct-15 22:32N 37°49' W 122°24'0 0.0
2014-Oct-15 21:32N 37°49' W 122°24'0 0.0
2014-Oct-15 20:32N 37°49' W 122°24'0 0.0
2014-Oct-15 19:32N 37°49' W 122°24'0 0.2
2014-Oct-15 18:33N 37°49' W 122°24'4 4.4
2014-Oct-15 17:33N 37°49' W 122°19'  
Track history (hours):
 
Tides and Currents Weather Stations Pressure Air Temp Water Temp Dewpoint Dewpoint Depression Visibility Wind Speed Wind Dir Waves Ship Positions

Arthur Brusco

Owner: Brusco Tug & Barge, Inc., Longview, WA. More information available from US FCC via Universal Licensing System and Coast Guard Vessel Documentation Center.

Last reported at 2014-Oct-25 16:34 UTC. Time now 2014-Oct-25 17:32 UTC.
Position N 37°33' W 122°12'.

Length 35 m; draft 4.2 m.

Type: Towing. MMSI: 367008020.

Date/timePositionNaut miles runAvg speedWind from/ knotsBaromVisibWave heightAir tempDewpointWater temp
2014-Oct-25 16:34N 37°33' W 122°12'0 0.0
2014-Oct-25 15:34N 37°33' W 122°12'0 0.0
2014-Oct-25 14:34N 37°33' W 122°12'1 0.5
2014-Oct-25 13:34N 37°34' W 122°12'0 0.2
2014-Oct-25 12:31N 37°34' W 122°12'1 0.5
2014-Oct-25 11:33N 37°34' W 122°13'1 0.8
2014-Oct-25 10:34N 37°34' W 122°14'3 2.7
2014-Oct-25 09:34N 37°36' W 122°16'4 3.7
2014-Oct-25 08:34N 37°39' W 122°19'4 3.9
2014-Oct-25 07:33N 37°43' W 122°21'5 5.0
2014-Oct-25 06:34N 37°48' W 122°23'5 5.5
2014-Oct-25 05:34N 37°53' W 122°25'2 2.4
2014-Oct-25 04:34N 37°55' W 122°25'0 0.1
2014-Oct-25 03:34N 37°55' W 122°24'2 2.0
2014-Oct-25 02:33N 37°57' W 122°26'2 2.1
2014-Oct-25 01:34N 37°59' W 122°26'4 3.6
2014-Oct-25 00:34N 37°56' W 122°25'6 6.4
2014-Oct-24 23:33N 37°49' W 122°24'1313.3
2014-Oct-24 22:34N 37°37' W 122°17'7 7.5
2014-Oct-24 21:34N 37°30' W 122°13'5 4.8
2014-Oct-24 20:34N 37°35' W 122°15'9 9.0
2014-Oct-24 19:34N 37°43' W 122°20'8 7.7
2014-Oct-24 18:34N 37°49' W 122°25'5 5.1
2014-Oct-24 17:34N 37°54' W 122°25'1 0.9
2014-Oct-24 16:33N 37°55' W 122°24'0 0.0
2014-Oct-24 15:34N 37°55' W 122°24'0 0.0
2014-Oct-24 14:33N 37°55' W 122°24'4 4.1
2014-Oct-24 13:34N 37°59' W 122°27'0 0.0
2014-Oct-24 12:33N 37°59' W 122°27'0 0.0
2014-Oct-24 11:34N 37°59' W 122°27'0 0.0
2014-Oct-24 10:33N 37°59' W 122°27'0 0.0
2014-Oct-24 09:34N 37°59' W 122°27'0 0.1
2014-Oct-24 08:34N 37°59' W 122°27'0 0.0
2014-Oct-24 07:34N 37°59' W 122°27'0 0.0
2014-Oct-24 06:34N 37°59' W 122°27'0 0.0
2014-Oct-24 05:34N 37°59' W 122°27'0 0.0
2014-Oct-24 04:34N 37°59' W 122°27'0 0.1
2014-Oct-24 03:33N 37°59' W 122°27'4 4.2
2014-Oct-24 02:33N 37°55' W 122°25'5 5.2
2014-Oct-24 01:34N 37°50' W 122°25'6 5.6
2014-Oct-24 00:34N 37°56' W 122°25'0 0.4
2014-Oct-23 23:34N 37°55' W 122°25'4 4.3
2014-Oct-23 22:33N 37°59' W 122°27'0 0.0
2014-Oct-23 21:33N 37°59' W 122°27'0 0.0
2014-Oct-23 20:33N 37°59' W 122°27'0 0.0
2014-Oct-23 19:33N 37°59' W 122°27'0 0.0
2014-Oct-23 18:33N 37°59' W 122°27'1 0.5
2014-Oct-23 17:33N 37°59' W 122°27'0 0.0
2014-Oct-23 16:34N 37°59' W 122°27'0 0.0
2014-Oct-23 15:28N 37°59' W 122°27'0 0.0
2014-Oct-23 14:33N 37°59' W 122°27'0 0.0
2014-Oct-23 13:33N 37°59' W 122°27'0 0.0
2014-Oct-23 12:31N 37°59' W 122°27'4 4.1
2014-Oct-23 11:33N 37°55' W 122°24'1 0.6
2014-Oct-23 10:33N 37°56' W 122°25'1 1.5
2014-Oct-23 09:33N 37°57' W 122°26'2 2.0
2014-Oct-23 08:33N 37°59' W 122°27'0 0.1
2014-Oct-23 07:33N 37°59' W 122°27'4 4.0
2014-Oct-23 06:33N 37°55' W 122°25'7 6.7
2014-Oct-23 05:33N 37°49' W 122°29'5 5.2
2014-Oct-23 04:33N 37°46' W 122°34'4 3.8
2014-Oct-23 03:33N 37°48' W 122°31'5 4.7
2014-Oct-23 02:33N 37°50' W 122°26'6 6.1
2014-Oct-23 01:33N 37°56' W 122°27'8 7.4
2014-Oct-23 00:32N 38°02' W 122°21'4 4.1
2014-Oct-22 23:30N 38°03' W 122°16'0 0.0
2014-Oct-22 18:12N 38°03' W 122°16'0 0.0
2014-Oct-22 16:30N 38°03' W 122°16'0 0.0
2014-Oct-22 15:30N 38°03' W 122°16'0 0.0
2014-Oct-22 14:30N 38°03' W 122°16'0 0.0
2014-Oct-22 13:30N 38°03' W 122°16'0 0.0
2014-Oct-22 12:30N 38°03' W 122°16'0 0.0
2014-Oct-22 11:30N 38°03' W 122°16'0 0.0
2014-Oct-22 10:24N 38°03' W 122°16'0 0.0
2014-Oct-22 09:30N 38°03' W 122°16'0 0.0
2014-Oct-22 08:17N 38°03' W 122°16'0 0.0
2014-Oct-22 07:33N 38°03' W 122°16'0 0.0
2014-Oct-22 06:26N 38°03' W 122°16'0 0.0
2014-Oct-22 05:17N 38°03' W 122°16'0 0.0
2014-Oct-22 04:33N 38°03' W 122°16'0 0.0
2014-Oct-22 03:33N 38°03' W 122°16'0 0.4
2014-Oct-22 02:33N 38°03' W 122°16'5 4.8
2014-Oct-22 01:33N 38°02' W 122°22'7 6.7
2014-Oct-22 00:33N 37°56' W 122°27'5 5.4
2014-Oct-21 23:33N 37°51' W 122°26'5 5.2
2014-Oct-21 22:33N 37°48' W 122°32'2 2.5
2014-Oct-21 21:33N 37°46' W 122°34'7 7.3
2014-Oct-21 20:33N 37°50' W 122°26'7 6.5
2014-Oct-21 19:33N 37°56' W 122°27'6 6.0
2014-Oct-21 18:33N 38°01' W 122°23'6 5.1
2014-Oct-21 17:28N 38°03' W 122°16'1 0.6
2014-Oct-21 16:27N 38°03' W 122°17'7 7.7
2014-Oct-21 15:31N 38°00' W 122°25'2 2.1
2014-Oct-21 14:30N 37°59' W 122°27'0 0.0
2014-Oct-21 12:03N 37°59' W 122°27'0 0.0
2014-Oct-21 10:30N 37°59' W 122°27'0 0.0
2014-Oct-21 09:31N 37°59' W 122°27'0 0.0
2014-Oct-21 08:05N 37°59' W 122°27'0 0.2
2014-Oct-21 07:33N 37°59' W 122°27'6 5.9
2014-Oct-21 06:33N 37°53' W 122°25'4 4.4
2014-Oct-21 05:33N 37°49' W 122°27'7 6.8
2014-Oct-21 04:33N 37°45' W 122°34'6 5.7
2014-Oct-21 03:33N 37°49' W 122°29'5 5.3
2014-Oct-21 02:33N 37°54' W 122°26'8 7.7
2014-Oct-21 01:33N 38°01' W 122°23'6 6.1
2014-Oct-21 00:33N 38°03' W 122°15'0 0.1
2014-Oct-20 23:32N 38°03' W 122°16'0 0.0
2014-Oct-20 19:33N 38°03' W 122°16'0 0.0
2014-Oct-20 11:33N 38°03' W 122°16'1 1.0
2014-Oct-20 10:29N 38°03' W 122°17'4 3.6
2014-Oct-20 09:26N 38°02' W 122°22'5 5.3
2014-Oct-20 08:33N 37°59' W 122°26'0 0.0
2014-Oct-20 07:33N 37°59' W 122°26'0 0.1
2014-Oct-20 06:33N 37°59' W 122°26'0 0.0
2014-Oct-20 05:33N 37°59' W 122°26'0 0.0
2014-Oct-20 04:33N 37°59' W 122°26'0 0.0
2014-Oct-20 03:33N 37°59' W 122°26'0 0.0
2014-Oct-20 02:33N 37°59' W 122°26'0 0.0
2014-Oct-20 01:33N 37°59' W 122°26'0 0.1
2014-Oct-20 00:33N 37°59' W 122°26'5 4.5
2014-Oct-19 23:33N 37°54' W 122°27'5 5.5
2014-Oct-19 22:33N 37°49' W 122°28'6 6.1
2014-Oct-19 21:33N 37°47' W 122°35'7 6.7
2014-Oct-19 20:31N 37°43' W 122°42'9 9.1
2014-Oct-19 19:33N 37°38' W 122°51'13 2.2
2014-Oct-19 13:33N 37°37' W 123°08'7 7.5
2014-Oct-19 12:33N 37°37' W 122°59'10 7.2
2014-Oct-19 11:10N 37°42' W 122°48'7 6.7
2014-Oct-19 10:12N 37°45' W 122°41'4 6.9
2014-Oct-19 09:33N 37°47' W 122°35'8 7.6
2014-Oct-19 08:33N 37°49' W 122°26'2 1.6
2014-Oct-19 07:33N 37°49' W 122°24'0 0.0
2014-Oct-19 06:33N 37°49' W 122°24'0 0.0
2014-Oct-19 05:33N 37°49' W 122°24'0 0.0
2014-Oct-19 04:30N 37°49' W 122°24'0 0.1
2014-Oct-19 03:32N 37°49' W 122°24'0 0.0
2014-Oct-19 02:32N 37°49' W 122°24'0 0.0
2014-Oct-19 01:32N 37°49' W 122°24'0 0.0
2014-Oct-19 00:32N 37°49' W 122°24'0 0.0
2014-Oct-18 23:31N 37°49' W 122°24'0 0.0
2014-Oct-18 22:28N 37°49' W 122°24'0 0.0
2014-Oct-18 21:31N 37°49' W 122°24'0 0.0
2014-Oct-18 20:31N 37°49' W 122°24'0 0.0
2014-Oct-18 19:31N 37°49' W 122°24'0 0.0
2014-Oct-18 18:28N 37°49' W 122°24'0 0.0
2014-Oct-18 17:31N 37°49' W 122°24'0 0.0
2014-Oct-18 16:31N 37°49' W 122°24'0 0.0
2014-Oct-18 15:31N 37°49' W 122°24'0 0.0
2014-Oct-18 14:31N 37°49' W 122°24'0 0.0
2014-Oct-18 13:31N 37°49' W 122°24'0 0.0
2014-Oct-18 12:31N 37°49' W 122°24'0 0.0
2014-Oct-18 11:31N 37°49' W 122°24'0 0.0
2014-Oct-18 10:28N 37°49' W 122°24'0 0.0
2014-Oct-18 09:31N 37°49' W 122°24'0 0.0
2014-Oct-18 08:28N 37°49' W 122°24'0 0.1
2014-Oct-18 07:33N 37°49' W 122°24'0 0.1
2014-Oct-18 06:28N 37°49' W 122°24'0 0.0
2014-Oct-18 05:31N 37°49' W 122°24'0 0.0
2014-Oct-18 04:31N 37°49' W 122°24'0 0.0
2014-Oct-18 03:28N 37°49' W 122°24'0 0.0
2014-Oct-18 02:25N 37°49' W 122°24'0 0.0
2014-Oct-18 01:28N 37°49' W 122°24'0 0.0
2014-Oct-18 00:25N 37°49' W 122°24'0 0.0
2014-Oct-17 23:28N 37°49' W 122°24'0 0.0
2014-Oct-17 22:19N 37°49' W 122°24'0 0.0
2014-Oct-17 21:31N 37°49' W 122°24'0 0.0
2014-Oct-17 20:31N 37°49' W 122°24'0 0.0
2014-Oct-17 19:31N 37°49' W 122°24'0 0.0
2014-Oct-17 18:31N 37°49' W 122°24'0 0.0
2014-Oct-17 17:31N 37°49' W 122°24'0 0.0
2014-Oct-17 16:31N 37°49' W 122°24'0 0.0
2014-Oct-17 15:31N 37°49' W 122°24'0 0.0
2014-Oct-17 14:31N 37°49' W 122°24'0 0.0
2014-Oct-17 13:31N 37°49' W 122°24'0 0.0
2014-Oct-17 12:31N 37°49' W 122°24'0 0.0
2014-Oct-17 11:31N 37°49' W 122°24'0 0.0
2014-Oct-17 10:31N 37°49' W 122°24'0 0.0
2014-Oct-17 09:31N 37°49' W 122°24'0 0.0
2014-Oct-17 08:31N 37°49' W 122°24'0 0.1
2014-Oct-17 07:33N 37°49' W 122°24'0 0.0
2014-Oct-17 06:30N 37°49' W 122°24'0 0.0
2014-Oct-17 05:33N 37°49' W 122°24'0 0.0
2014-Oct-17 04:33N 37°49' W 122°24'0 0.1
2014-Oct-17 03:32N 37°49' W 122°24'0 0.0
2014-Oct-17 02:32N 37°49' W 122°24'0 0.0
2014-Oct-17 01:32N 37°49' W 122°24'0 0.0
2014-Oct-17 00:32N 37°49' W 122°24'3 2.7
2014-Oct-16 23:34N 37°49' W 122°28'8 7.6
2014-Oct-16 22:33N 37°46' W 122°37'6 6.2
2014-Oct-16 21:33N 37°43' W 122°43'9 9.2
2014-Oct-16 20:33N 37°38' W 122°53'10 9.7
2014-Oct-16 19:33N 37°32' W 123°03'9 9.2
2014-Oct-16 18:32N 37°34' W 123°15'9 8.8
2014-Oct-16 17:28N 37°37' W 123°26'7 3.5
2014-Oct-16 15:32N 37°38' W 123°17'6 6.5
2014-Oct-16 14:33N 37°37' W 123°09'7 6.9
2014-Oct-16 13:33N 37°37' W 123°01'7 6.8
2014-Oct-16 12:34N 37°40' W 122°53'7 6.7
2014-Oct-16 11:33N 37°43' W 122°45'6 6.3
2014-Oct-16 10:34N 37°46' W 122°38'7 6.5
2014-Oct-16 09:34N 37°48' W 122°31'5 5.0
2014-Oct-16 08:33N 37°49' W 122°24'0 0.2
2014-Oct-16 07:33N 37°49' W 122°24'0 0.0
2014-Oct-16 06:29N 37°49' W 122°24'0 0.1
2014-Oct-16 05:33N 37°49' W 122°24'0 0.0
2014-Oct-16 04:33N 37°49' W 122°24'0 0.0
2014-Oct-16 03:32N 37°49' W 122°24'0 0.0
2014-Oct-16 02:32N 37°49' W 122°24'0 0.0
2014-Oct-16 01:32N 37°49' W 122°24'0 0.0
2014-Oct-16 00:32N 37°49' W 122°24'0 0.0
2014-Oct-15 23:32N 37°49' W 122°24'0 0.0
2014-Oct-15 22:32N 37°49' W 122°24'0 0.0
2014-Oct-15 21:32N 37°49' W 122°24'0 0.0
2014-Oct-15 20:32N 37°49' W 122°24'0 0.0
2014-Oct-15 19:32N 37°49' W 122°24'0 0.2
2014-Oct-15 18:33N 37°49' W 122°24'4 4.4
2014-Oct-15 17:33N 37°49' W 122°19'  

Dump ship's entire track history